Terminal Aerodrome Forecast
Issued by NWS Sterling, VA

Current Version | Previous Version | Text Only | Print | Product List | Glossary Off
Versions: 1 2 3 4 5 6 7 8 9 10 11 12 13 14 15 16 17 18 19 20 21 22 23 24 25 26 27

272
FTUS41 KLWX 041432 AAA
TAFDCA
TAF AMD
KDCA 041432Z 0415/0512 32004KT P6SM BKN200
     FM050300 15004KT 6SM -RA BR OVC050
     FM050600 16005KT 6SM -RA BR OVC020
     FM050800 17005KT 6SM -RA BR OVC008=

USA.gov is the U.S. government's official web portal to all federal, state and local government web resources and services.